Flag for U.S.A. Weather past 2 weeks in Corvallis, Oregon, U.S.A.

Now
48 °F

Passing clouds.


Feels Like: 44 °F
Forecast: 48 / 58 °F
Wind: 10 mph from South

Location: Corvallis Municipal

Current Time: Oct 26, 2014 at 2:49:10 AM

Latest Report: Oct 26, 2014 at 2:35 AM


Visibility: 10 mi

Pressure: 30.03 "Hg

Humidity: 87%

Dew point: 45 °F

Location of CorvallisLocation

Historic Weather in Corvallis — Graph

°F

Corvallis temperature yesterday

Maximum temperature yesterday: 61 °F (at 11:35 AM)
Minimum temperature yesterday: 50 °F (at 11:35 PM)
Average temperature yesterday: 54 °F

Past Weeks' High & Low Weather Summary

 TemperatureHumidityPressure
High79 °F (Oct 13, 3:35 PM)100% (Oct 12, 1:15 AM)30.32 "Hg (Oct 12, 1:15 AM)
Low39 °F (Oct 13, 3:35 AM)28% (Oct 13, 3:15 PM)29.41 "Hg (Oct 25, 9:55 AM)
Average57 °F84%29.89 "Hg
* Reported Oct 11 1:15 AM — Oct 26 1:35 AM, Corvallis, Weather by CustomWeather, © 2014

Note: Actual official high and low records may vary slightly from our data, if they occured in-between our weather recording intervals... More about our weather records

Advertising

Corvallis weather history for previous 24 hours

 ConditionsComfort  
Time TempWeatherWind HumidityBarometerVisibility
1:35 AM
Oct 26
52 °FPassing clouds.10 mph88%30.02 "Hg9 mi
1:15 AM52 °FPartly cloudy.8 mph82%30.01 "Hg10 mi
12:55 AM50 °FOvercast.8 mph88%30.01 "Hg9 mi
12:35 AM50 °FPartly cloudy.8 mph88%30.00 "Hg10 mi
12:15 AM50 °FPassing clouds.12 mph88%29.99 "Hg10 mi
11:55 PM
Oct 25
52 °FPassing clouds.12 mph82%29.99 "Hg10 mi
11:35 PM50 °FClear.10 mph88%29.98 "Hg10 mi
10:55 PM52 °FPassing clouds.9 mph82%29.96 "Hg10 mi
10:35 PM54 °FMostly cloudy.7 mph82%29.95 "Hg10 mi
10:15 PM52 °FPassing clouds.9 mph88%29.95 "Hg10 mi
9:55 PM52 °FPassing clouds.10 mph82%29.92 "Hg10 mi
9:35 PM54 °FPassing clouds.10 mph82%29.91 "Hg8 mi
9:15 PM52 °FPassing clouds.8 mph88%29.91 "Hg10 mi
8:55 PM52 °FPassing clouds.10 mph88%29.91 "Hg10 mi
8:35 PM52 °FPassing clouds.7 mph88%29.89 "Hg10 mi
7:55 PM54 °FMostly cloudy.9 mph82%29.87 "Hg10 mi
7:35 PM54 °FPartly cloudy.8 mph82%29.86 "Hg10 mi
7:15 PM54 °FOvercast.8 mph88%29.84 "Hg10 mi
6:55 PM54 °FBroken clouds.8 mph88%29.83 "Hg10 mi
6:35 PM54 °FMostly cloudy.5 mph82%29.81 "Hg10 mi
6:15 PM54 °FBroken clouds.13 mph77%29.79 "Hg10 mi
5:55 PM54 °FBroken clouds.16 mph82%29.76 "Hg10 mi
5:35 PM55 °FBroken clouds.14 mph82%29.73 "Hg7 mi
5:15 PM55 °FMore clouds than sun.16 mph88%29.70 "Hg8 mi
4:55 PM57 °FCloudy.22 mph82%29.66 "Hg5 mi
4:35 PM57 °FCloudy.16 mph82%29.63 "Hg10 mi
4:15 PM59 °FMostly cloudy.15 mph82%29.59 "Hg10 mi
3:55 PM57 °FBroken clouds.17 mph94%29.54 "Hg4 mi
3:35 PM57 °FMostly cloudy.16 mph88%29.50 "Hg5 mi
3:15 PM57 °FMostly cloudy.22 mph88%29.48 "Hg5 mi
2:55 PM57 °FMostly cloudy.21 mph88%29.47 "Hg4 mi
2:35 PM61 °FBroken clouds.28 mph72%29.46 "Hg10 mi
2:15 PM61 °FCloudy.36 mph77%29.44 "Hg10 mi
1:55 PM61 °FMostly cloudy.30 mph83%29.44 "Hg10 mi
1:35 PM61 °FMore clouds than sun.20 mph77%29.44 "Hg10 mi
1:15 PM61 °FMore clouds than sun.24 mph77%29.43 "Hg10 mi
12:55 PM61 °FCloudy.21 mph83%29.43 "Hg10 mi
12:35 PM61 °FBroken clouds.18 mph77%29.44 "Hg9 mi
12:15 PM61 °FMostly cloudy.23 mph83%29.43 "Hg10 mi
11:55 AM61 °FCloudy.28 mph77%29.42 "Hg10 mi
11:35 AM61 °FMostly cloudy.25 mph77%29.41 "Hg10 mi
11:15 AM57 °FMostly cloudy.12 mph88%29.41 "Hg10 mi
10:55 AM55 °FMostly cloudy.No wind88%29.41 "Hg10 mi
10:35 AM55 °FMostly cloudy.5 mph88%29.41 "Hg10 mi
10:15 AM54 °FMostly cloudy.No wind94%29.41 "Hg10 mi
9:55 AM54 °FOvercast.3 mph94%29.41 "Hg10 mi
9:35 AM54 °FMostly cloudy.3 mph94%29.42 "Hg10 mi
8:55 AM54 °FOvercast.No wind94%29.43 "Hg10 mi
8:35 AM54 °FPassing clouds.5 mph88%29.44 "Hg10 mi
8:15 AM52 °FPassing clouds.6 mph88%29.46 "Hg10 mi
7:55 AM52 °FPassing clouds.5 mph88%29.47 "Hg8 mi
7:35 AM52 °FPassing clouds.8 mph88%29.49 "Hg6 mi
6:55 AM54 °FPassing clouds.9 mph88%29.53 "Hg10 mi
6:35 AM54 °FMostly cloudy.13 mph88%29.55 "Hg5 mi
6:15 AM54 °FOvercast.14 mph88%29.54 "Hg7 mi
5:55 AM54 °FOvercast.8 mph88%29.55 "Hg6 mi
5:35 AM54 °FMostly cloudy.7 mph88%29.58 "Hg7 mi
5:15 AM54 °FMostly cloudy.6 mph88%29.57 "Hg10 mi
4:55 AM52 °FMostly cloudy.3 mph94%29.56 "Hg9 mi
4:35 AM52 °FMostly cloudy.No wind88%29.59 "Hg10 mi
4:15 AM52 °FLow clouds.7 mph88%29.57 "Hg9 mi
3:55 AM52 °FLow clouds.5 mph94%29.55 "Hg9 mi
3:35 AM52 °FLow clouds.No wind88%29.55 "Hg7 mi
3:15 AM52 °FLow clouds.No wind94%29.56 "Hg7 mi
2:55 AM52 °FLow clouds.No wind88%29.57 "Hg8 mi
2:35 AM52 °FLow clouds.No wind88%29.59 "Hg8 mi
2:15 AM52 °FMostly cloudy.No wind88%29.61 "Hg8 mi
Weather by CustomWeather, © 2014

See weather overviewHow to use our weather pages